CDT,Max TemperatureF,Mean TemperatureF,Min TemperatureF,Max Dew PointF,MeanDew PointF,Min DewpointF,Max Humidity, Mean Humidity, Min Humidity, Max Sea Level PressureIn, Mean Sea Level PressureIn, Min Sea Level PressureIn, Max VisibilityMiles, Mean VisibilityMiles, Min VisibilityMiles, Max Wind SpeedMPH, Mean Wind SpeedMPH, Max Gust SpeedMPH,PrecipitationIn, CloudCover, Events, WindDirDegrees
2012-10-1,75,64,48,51,46,39,86,58,23,30.09,29.99,29.87,10,10,9,26,10,37,0.00,3,Thunderstorm,342
2012-10-2,73,56,39,40,34,29,81,46,10,30.09,29.98,29.87,10,10,10,14,7,17,0.00,0,,232
2012-10-3,84,66,48,50,44,33,74,46,24,29.88,29.82,29.74,10,10,10,21,14,28,0.00,0,,180
2012-10-4,64,56,46,50,33,28,63,47,21,30.28,30.19,29.97,10,10,4,29,16,37,0.00,3,,15
2012-10-5,52,44,35,35,31,24,85,60,22,30.35,30.27,30.23,10,10,9,21,9,28,0.00,6,,37
2012-10-6,42,40,37,36,34,32,93,84,64,30.40,30.34,30.30,10,8,2,15,9,,0.08,8,Rain,53
2012-10-7,50,39,28,35,31,28,96,77,37,30.38,30.29,30.15,10,7,0,15,4,20,0.00,6,Fog,204
2012-10-8,71,50,30,36,32,27,85,51,11,30.14,29.99,29.86,10,10,7,21,13,31,0.00,0,,200
2012-10-9,64,50,37,39,36,32,89,59,28,30.21,29.93,29.76,10,10,10,28,14,38,0.00,0,,19
2012-10-10,64,47,30,35,28,24,82,48,14,30.30,30.18,30.04,10,10,9,16,7,24,0.00,0,,189
2012-10-11,82,64,46,47,42,34,90,52,18,30.17,29.99,29.92,10,9,6,18,13,26,0.00,0,,232
2012-10-12,57,51,45,54,40,30,94,66,41,30.24,30.11,29.94,10,8,0,18,12,25,0.91,7,Fog-Rain,104
2012-10-13,75,64,53,61,53,34,100,79,17,29.97,29.83,29.60,10,6,0,24,13,33,1.46,5,Fog-Rain-Thunderstorm,220
2012-10-14,73,62,50,45,40,37,68,46,19,30.12,30.01,29.73,10,10,10,23,16,31,0.00,0,,306
2012-10-15,82,66,51,47,41,39,66,42,15,30.06,29.91,29.75,10,10,10,14,10,20,0.00,0,,216
2012-10-16,80,64,48,43,40,37,74,42,14,29.77,29.63,29.42,10,10,9,15,9,,0.00,0,,189
2012-10-17,66,54,39,44,31,15,74,40,9,29.90,29.65,29.35,10,10,9,30,14,41,0.00,0,,327
2012-10-18,64,50,37,25,17,10,57,28,5,30.01,29.96,29.91,10,9,7,41,17,56,0.00,3,,306
2012-10-19,73,58,42,29,19,10,48,24,7,30.00,29.91,29.78,10,10,8,20,14,29,0.00,0,,281
2012-10-20,86,66,45,45,34,24,63,36,5,29.77,29.71,29.62,10,10,6,14,9,,0.00,0,,193
2012-10-21,84,65,46,52,44,32,93,60,13,29.71,29.65,29.57,10,9,6,13,8,,0.00,0,,187
2012-10-22,60,54,48,52,49,47,96,89,70,29.90,29.81,29.67,6,3,0,14,9,,0.00,6,Fog,345
2012-10-23,88,67,46,56,42,32,94,49,8,29.76,29.67,29.60,10,9,5,15,10,18,0.00,0,,196
2012-10-24,64,54,46,52,46,42,93,71,41,29.82,29.71,29.62,10,8,1,18,11,23,0.00,3,,349
2012-10-25,51,40,28,48,34,22,100,72,33,30.37,30.01,29.66,10,8,0,32,20,45,0.00,6,Fog-Rain,4
2012-10-26,43,35,24,27,23,18,86,68,32,30.58,30.45,30.33,10,10,10,26,12,34,0.00,5,,10
2012-10-27,50,36,21,25,22,19,81,58,22,30.43,30.31,30.19,10,10,9,14,8,21,0.00,0,,172
2012-10-28,63,44,25,26,22,19,78,47,12,30.26,30.19,30.10,10,10,10,16,9,17,0.00,2,,178
2012-10-29,71,54,37,32,27,23,59,40,12,30.15,30.09,30.01,10,10,9,18,13,26,0.00,0,,198
2012-10-30,79,62,45,38,34,30,65,41,14,30.02,29.96,29.89,10,10,9,20,12,26,0.00,0,,310
2012-10-31,81,60,39,37,35,32,79,46,10,30.06,30.01,29.92,10,10,10,13,5,,0.00,0,,313